Home > Weather > Austin > Past weeks

Flag for U.S.A. Weather for the Past 2 Weeks in Austin, Texas, U.S.A.

Now
49 °F

Clear.


Feels Like: 49 °F
Forecast: 49 / 78 °F
Wind: No wind

Location: Camp Mabry / Austin City

Current Time: Feb 12, 2016 at 7:22:25 AM

Latest Report: Feb 12, 2016 at 6:51 AM


Visibility: 10 mi

Pressure: 30.19 "Hg

Humidity: 90%

Dew point: 46 °F

Location of AustinLocation

Historic Weather in Austin — Graph

°F

Austin Temperature Yesterday

Maximum temperature yesterday: 83 °F (at 2:51 PM)
Minimum temperature yesterday: 53 °F (at 6:51 AM)
Average temperature yesterday: 66 °F

High & Low Weather Summary for the Past Weeks

 TemperatureHumidityPressure
High85 °F (Jan 31, 2:51 PM)100% (Feb 1, 6:51 AM)30.54 "Hg (Feb 1, 6:51 AM)
Low32 °F (Feb 7, 4:51 AM)15% (Feb 8, 1:51 PM)29.52 "Hg (Feb 1, 6:51 PM)
Average56 °F48%30.13 "Hg
* Reported Jan 28 5:51 AM — Feb 12 5:51 AM, Austin, Weather by CustomWeather, © 2016

Note: Actual official high and low records may vary slightly from our data, if they occured in-between our weather recording intervals... More about our weather records

Advertising

Austin Weather History for the Previous 24 Hours

 ConditionsComfort  
Time TempWeatherWind HumidityBarometerVisibility
5:51 AM
Fri, Feb 12
50 °FClear.No wind86%30.17 "Hg10 mi
4:51 AM51 °FClear.No wind86%30.15 "Hg10 mi
3:51 AM53 °FClear.No wind80%30.13 "Hg10 mi
2:51 AM54 °FClear.No wind77%30.13 "Hg10 mi
1:51 AM57 °FClear.No wind72%30.13 "Hg10 mi
12:51 AM58 °FClear.5 mph67%30.12 "Hg10 mi
11:51 PM
Thu, Feb 11
59 °FClear.3 mph64%30.12 "Hg10 mi
10:51 PM62 °FClear.5 mph54%30.13 "Hg10 mi
9:51 PM65 °FClear.7 mph40%30.12 "Hg10 mi
8:51 PM67 °FClear.No wind32%30.11 "Hg10 mi
7:51 PM67 °FClear.3 mph33%30.11 "Hg10 mi
6:51 PM71 °FClear.5 mph28%30.09 "Hg10 mi
5:51 PM76 °FSunny.7 mph23%30.07 "Hg10 mi
4:51 PM79 °FSunny.7 mph21%30.06 "Hg10 mi
3:51 PM82 °FSunny.6 mph20%30.04 "Hg10 mi
2:51 PM83 °FSunny.7 mph22%30.04 "Hg10 mi
1:51 PM82 °FSunny.9 mph21%30.06 "Hg10 mi
12:51 PM80 °FSunny.9 mph23%30.09 "Hg10 mi
11:51 AM76 °FSunny.12 mph26%30.14 "Hg10 mi
10:51 AM72 °FSunny.10 mph30%30.16 "Hg10 mi
9:51 AM68 °FSunny.6 mph35%30.16 "Hg10 mi
8:51 AM61 °FSunny.3 mph41%30.16 "Hg10 mi
7:51 AM54 °FSunny.3 mph45%30.15 "Hg10 mi
Weather by CustomWeather, © 2016

See weather overviewHow to use our weather pages